Погода в Мариинском Посаде

Россия / Чувашская Республика     56°06′42″N   47°42′51″E
темп.,
°C
ветер,
м/с
пор.,
м/с
влажн.,
%
обл.,
%
осадки,
мм/ч
давл.,
гПа
погр.,
м
14 апреля, ср
ср1400:00+7ю44715 0.0 103042
03:00+6ю347392 0.0 103038
06:00+6ю357611 0.0 102959
09:00+12ю46655 0.0 1028217
12:00+16ю57495 0.0 1027644
15:00+18ю57455 0.0 1026920
18:00+14ю36735 0.0 1024109
21:00+11ю38874 0.0 1024128
15 апреля, чт
чт1500:00+10ю36891 0.0 1023100
03:00+9ю33900 0.0 102239
06:00+9ююв34890 0.0 102179
09:00+14ю34724 0.0 1020431
12:00+17ююз336173 0.1 10191206
15:00+18юз335593 0.4 10181303
18:00+15з236888 0.2 101849
21:00+13ссз368191 0.2 1019177
16 апреля, пт
пт1600:00+9ссв61091100 0.0 1020411
03:00+8св61089100 0.0 1022512
06:00+6св61190100 0.0 1023524
09:00+6св61189100 0.4 1024541
12:00+8всв6107876 0.1 1025682
15:00+11всв686253 0.1 1025924
18:00+9всв486431 0.0 1026329
21:00+6св511687 0.0 1027277
17 апреля, сб
сб1700:00+3св411710 0.0 1028242
03:00+1св410770 0.0 1028197
06:00+2св310740 0.0 1029263
09:00+7всв57494 0.0 1030717
12:00+11св56380 0.0 10291321
15:00+12св56360 0.0 10281551
18:00+9ссв36520 0.0 1028139
21:00+6ссв33650 0.0 102834
18 апреля, вс
вс1800:00+4ссв33710 0.0 102830
03:00+3ссв33790 0.0 102936
06:00+3ссв36795 0.0 1029160
09:00+9ссв46565 0.0 1029760
12:00+12ссв564619 0.0 10281660
15:00+12ссв764799 0.0 10281725
18:00+8св696478 0.0 1030652
21:00+4св4107179 0.0 1031311